This is the latest recevied weather packets stored in our database for station/object F4GMT-11. If no packets are shown the sender has not sent any weather packets the latest 10 day(s).
| Time | Temp. | Humidity | Pressure | Rain* | Wind** | Luminosity | Snow |
|---|---|---|---|---|---|---|---|
| 1777517814 | 18.89° C | 58% | 1012.2 hPa | - | - | - | - |
| 1777516615 | 18.33° C | 59% | 1012.3 hPa | - | - | - | - |
| 1777515414 | 18.33° C | 58% | 1012.2 hPa | - | - | - | - |
| 1777514214 | 18.89° C | 58% | 1012.1 hPa | - | - | - | - |
| 1777513014 | 18.89° C | 59% | 1012.2 hPa | - | - | - | - |
| 1777511815 | 18.89° C | 59% | 1012.5 hPa | - | - | - | - |
| 1777509414 | 18.89° C | 59% | 1012.6 hPa | - | - | - | - |
| 1777508214 | 18.89° C | 59% | 1012.6 hPa | - | - | - | - |
| 1777505814 | 19.44° C | 58% | 1011.7 hPa | - | - | - | - |
| 1777504615 | 19.44° C | 58% | 1011.3 hPa | - | - | - | - |
| 1777503414 | 19.44° C | 58% | 1010.9 hPa | - | - | - | - |
| 1777502214 | 20° C | 58% | 1010.3 hPa | - | - | - | - |
| 1777501014 | 20° C | 58% | 1010.5 hPa | - | - | - | - |
| 1777498614 | 20° C | 58% | 1010.8 hPa | - | - | - | - |
| 1777497414 | 20.56° C | 58% | 1010.7 hPa | - | - | - | - |
| 1777496214 | 20.56° C | 58% | 1010.5 hPa | - | - | - | - |
| 1777491414 | 21.67° C | 57% | 1010.3 hPa | - | - | - | - |
| 1777489015 | 22.22° C | 57% | 1010.3 hPa | - | - | - | - |
| 1777487814 | 22.22° C | 57% | 1010 hPa | - | - | - | - |
| 1777486614 | 22.22° C | 58% | 1008.4 hPa | - | - | - | - |
| 1777485414 | 22.22° C | 58% | 1008.9 hPa | - | - | - | - |
| 1777484214 | 22.22° C | 58% | 1008.6 hPa | - | - | - | - |
| 1777471014 | 21.11° C | 63% | 1008.8 hPa | - | - | - | - |
| 1777459013 | 18.89° C | 61% | 1008.6 hPa | - | - | - | - |
| 1777454213 | 18.89° C | 60% | 1009 hPa | - | - | - | - |
* Rain since midnight (hover to see other rain measurements)
** Current wind speed in m/s (hover to see current wind gust speed)